User: anonymous   Login
Location: Fort Wayne
(41.1310°N, 85.1290°W)
Time: 18:34:33
(UTC-04:00)
Language:

Oscar 19 - Orbit

View from above orbital plane
View from above orbital plane
View from above satellite
View from above satellite

Ground track
Ground track

The orbit data is extracted from the following two-line orbital elements,

1 20442U 90005G   16267.87812544 +.00000029 +00000-0 +26583-4 0  9996
2 20442 098.5479 201.4670 0011070 210.0292 150.0258 14.32830308393425
Epoch (UTC): 23 September 2016 21:04:30
Eccentricity: 0.0011070
inclination: 98.5479°
perigee height: 774 km
apogee height: 790 km
right ascension of ascending node: 201.4670°
argument of perigee: 210.0292°
revolutions per day: 14.32830308
mean anomaly at epoch: 150.0258°
orbit number at epoch: 39342

The dashed part of the orbit path shows where the satellite is in the earth's shadow,  

DLR